period_start,C,m1,H,J0,J1,J2,J3,J4,J5,JA,JB,JC,JD,JJ,JK,JN,#
2014-06-03 00:04:32,0.00,0.99,0.00,23.07,27.27,29.74,9.52,39.60,1013.69,2039.04,3070.99,3034.98,3301.00,499.69,494.79,45.99,0000 0000 0000 0000 000000
2014-06-03 00:09:33,0.00,0.99,0.00,23.09,27.29,29.74,9.53,39.48,1013.69,2039.01,3070.98,3034.94,3300.99,500.11,495.36,46.03,0000 0000 0000 0000 000000
2014-06-03 00:14:34,0.01,0.99,0.00,23.12,27.30,29.75,9.57,39.67,1013.69,2039.01,3070.97,3034.85,3300.99,500.04,495.22,46.07,0000 0000 0000 0000 000000
2014-06-03 00:19:35,0.01,0.99,0.00,23.13,27.30,29.76,9.58,39.58,1013.69,2039.02,3070.93,3034.66,3300.97,500.46,495.57,46.12,0000 0000 0000 0000 000000
2014-06-03 00:24:36,0.01,0.99,0.00,23.15,27.32,29.78,9.59,39.56,1013.69,2039.01,3070.82,3034.23,3300.86,500.11,495.13,46.16,0000 0000 0000 0000 000000
2014-06-03 00:29:37,0.02,0.99,0.00,23.17,27.32,29.78,9.53,39.45,1013.70,2039.00,3070.58,3034.08,3300.42,500.15,495.18,46.20,0000 0000 0000 0000 000000
2014-06-03 00:34:38,0.02,0.99,0.00,23.19,27.34,29.80,9.52,39.48,1013.70,2039.00,3070.26,3034.02,3300.13,500.27,495.05,46.24,0000 0000 0000 0000 000000
2014-06-03 00:39:40,0.00,0.99,0.00,23.20,27.35,29.80,9.55,39.48,1013.72,2039.00,3070.03,3034.00,3300.02,499.73,494.57,46.28,0000 0000 0000 0000 000000
2014-06-03 00:44:41,0.00,0.99,0.00,23.22,27.35,29.81,9.48,39.63,1013.71,2039.00,3070.00,3034.00,3300.00,499.61,494.53,46.32,0000 0000 0000 0000 000000
2014-06-03 00:49:42,0.00,0.99,0.00,23.22,27.37,29.82,9.54,39.59,1013.70,2038.99,3070.00,3033.99,3300.00,499.89,494.77,46.37,0000 0000 0000 0000 000000
2014-06-03 00:54:43,0.00,0.99,0.00,23.24,27.37,29.83,9.54,39.42,1013.71,2038.99,3069.85,3033.95,3299.98,499.83,494.77,46.41,0000 0000 0000 0000 000000
2014-06-03 00:59:44,0.02,0.99,0.00,23.25,27.40,29.84,9.53,39.24,1013.73,2038.97,3069.61,3033.75,3299.79,499.91,494.72,46.45,0000 0000 0000 0000 000000
2014-06-03 01:04:45,0.03,0.99,0.00,23.27,27.40,29.86,9.52,39.32,1013.71,2038.98,3069.07,3033.14,3299.24,499.73,494.59,46.49,0000 0000 0000 0000 000000
2014-06-03 01:09:46,0.01,0.99,0.00,23.27,27.42,29.87,9.54,39.42,1013.71,2038.99,3069.04,3033.05,3299.06,500.08,495.11,46.53,0000 0000 0000 0000 000000
2014-06-03 01:14:47,-0.01,0.99,0.00,23.28,27.42,29.89,9.55,39.19,1013.71,2038.92,3069.00,3033.00,3299.00,500.16,494.94,46.57,0000 0000 0000 0000 000000
2014-06-03 01:19:48,-0.01,0.99,0.00,23.30,27.44,29.90,9.47,39.24,1013.74,2038.84,3068.97,3033.00,3298.99,499.92,494.87,46.62,0000 0000 0000 0000 000000
2014-06-03 01:24:49,-0.03,0.99,0.00,23.32,27.45,29.91,9.51,39.41,1013.79,2038.59,3068.82,3032.98,3298.97,500.10,494.97,46.66,0000 0000 0000 0000 000000
2014-06-03 01:29:50,-0.01,0.99,0.00,23.33,27.46,29.92,9.51,39.33,1013.77,2038.51,3068.61,3032.96,3298.91,499.94,494.69,46.70,0000 0000 0000 0000 000000
2014-06-03 01:34:52,0.01,0.99,0.00,23.36,27.47,29.92,9.54,39.33,1013.73,2038.13,3068.19,3032.61,3298.32,499.88,494.61,46.74,0000 0000 0000 0000 000000
2014-06-03 01:39:53,0.01,0.99,0.00,23.37,27.48,29.94,9.50,39.37,1013.78,2038.14,3068.02,3032.23,3298.07,499.86,494.65,46.78,0000 0000 0000 0000 000000
2014-06-03 01:44:54,-0.01,0.99,0.00,23.38,27.50,29.95,9.60,39.55,1013.76,2038.07,3068.01,3032.08,3298.02,499.66,494.57,46.82,0000 0000 0000 0000 000000
2014-06-03 01:49:55,0.00,0.99,0.00,23.40,27.51,29.96,9.54,39.66,1013.73,2038.03,3068.00,3032.01,3298.00,500.30,494.97,46.87,0000 0000 0000 0000 000000
2014-06-03 01:54:56,-0.00,0.99,0.00,23.42,27.52,29.98,9.55,39.48,1013.75,2038.02,3067.94,3032.00,3298.00,500.06,494.56,46.91,0000 0000 0000 0000 000000
2014-06-03 01:59:57,0.01,0.99,0.00,23.43,27.53,29.99,9.51,39.39,1013.83,2038.01,3067.65,3032.00,3297.95,500.01,494.54,46.95,0000 0000 0000 0000 000000
2014-06-03 02:04:58,0.01,0.99,0.00,23.45,27.55,29.99,9.50,39.38,1013.79,2038.01,3067.13,3031.99,3297.71,500.33,494.83,46.99,0000 0000 0000 0000 000000
2014-06-03 02:10:00,0.01,0.99,0.00,23.47,27.56,30.01,9.47,39.09,1013.74,2038.00,3067.01,3031.84,3297.16,499.74,494.53,47.03,0000 0000 0000 0000 000000
2014-06-03 02:15:01,0.02,0.99,0.00,23.50,27.57,30.02,9.54,39.32,1013.77,2038.00,3066.99,3031.32,3297.02,500.15,494.60,47.07,0000 0000 0000 0000 000000
2014-06-03 02:20:02,0.00,0.99,0.00,23.52,27.60,30.04,9.47,39.40,1013.80,2038.00,3066.95,3031.02,3297.00,499.43,493.90,47.12,0000 0000 0000 0000 000000
2014-06-03 02:25:03,0.01,0.99,0.00,23.55,27.61,30.05,9.51,39.43,1013.83,2038.00,3066.42,3031.00,3296.97,499.70,494.27,47.16,0000 0000 0000 0000 000000
2014-06-03 02:30:04,0.00,1.00,0.00,23.57,27.62,30.07,9.53,39.26,1013.83,2038.00,3066.08,3031.00,3296.78,500.01,494.22,47.20,0000 0000 0000 0000 000000
2014-06-03 02:35:05,0.01,1.00,0.00,23.59,27.64,30.08,9.53,39.32,1013.95,2037.99,3066.01,3030.90,3296.12,500.19,494.60,47.24,0000 0000 0000 0000 000000
2014-06-03 02:40:06,0.02,1.00,0.00,23.62,27.65,30.10,9.56,39.26,1014.05,2037.97,3065.99,3030.38,3296.01,500.09,494.30,47.28,0000 0000 0000 0000 000000
2014-06-03 02:45:07,0.01,1.00,0.00,23.65,27.67,30.12,9.51,39.17,1014.07,2037.97,3065.93,3030.07,3296.00,500.13,494.47,47.32,0000 0000 0000 0000 000000
2014-06-03 02:50:08,-0.01,1.00,0.00,23.68,27.69,30.12,9.58,39.50,1014.14,2037.90,3065.71,3030.00,3295.99,500.22,494.67,47.37,0000 0000 0000 0000 000000
2014-06-03 02:55:09,-0.02,1.00,0.00,23.70,27.71,30.15,9.58,39.23,1014.15,2037.68,3065.37,3030.00,3295.88,500.19,494.59,47.41,0000 0000 0000 0000 000000
2014-06-03 03:00:10,0.00,1.00,0.00,23.73,27.72,30.16,9.51,39.20,1014.15,2037.52,3065.04,3029.99,3295.46,499.71,494.08,47.45,0000 0000 0000 0000 000000
2014-06-03 03:05:12,-0.02,1.00,0.00,23.74,27.75,30.18,9.49,39.21,1014.16,2037.15,3065.00,3029.80,3295.04,499.89,494.25,47.49,0000 0000 0000 0000 000000
2014-06-03 03:10:13,0.01,1.00,0.00,23.77,27.77,30.20,9.56,39.34,1014.16,2037.05,3064.99,3029.28,3295.00,500.18,494.47,47.53,0000 0000 0000 0000 000000
2014-06-03 03:15:14,0.00,1.00,0.00,23.81,27.79,30.22,9.44,38.99,1014.15,2037.01,3064.95,3029.04,3294.99,500.02,494.42,47.57,0000 0000 0000 0000 000000
2014-06-03 03:20:15,0.01,1.00,0.00,23.84,27.81,30.24,9.51,39.14,1014.16,2037.02,3064.69,3029.01,3294.82,500.27,494.44,47.61,0000 0000 0000 0000 000000
2014-06-03 03:25:16,0.02,1.00,0.00,23.86,27.83,30.26,9.52,39.23,1014.17,2037.00,3064.14,3028.99,3294.22,499.74,493.99,47.66,0000 0000 0000 0000 000000
2014-06-03 03:30:17,0.00,1.00,0.00,23.89,27.85,30.28,9.57,39.24,1014.17,2037.00,3064.01,3028.90,3294.01,500.50,494.45,47.70,0000 0000 0000 0000 000000
2014-06-03 03:35:18,0.02,1.00,0.00,23.92,27.87,30.30,9.46,39.49,1014.17,2036.99,3063.97,3028.29,3293.99,499.78,493.62,47.74,0000 0000 0000 0000 000000
2014-06-03 03:40:19,0.00,1.00,0.00,23.95,27.89,30.32,9.51,39.33,1014.16,2036.99,3063.94,3028.06,3293.95,500.17,494.31,47.78,0000 0000 0000 0000 000000
2014-06-03 03:45:20,0.02,1.00,0.00,23.97,27.91,30.34,9.54,39.23,1014.17,2036.97,3063.74,3028.00,3293.66,499.90,493.79,47.82,0000 0000 0000 0000 000000
2014-06-03 03:50:21,-0.01,1.00,0.00,24.00,27.94,30.37,9.48,39.17,1014.17,2036.81,3063.10,3028.00,3293.05,499.68,493.51,47.86,0000 0000 0000 0000 000000
2014-06-03 03:55:21,-0.02,1.00,0.00,24.02,27.96,30.39,9.53,39.29,1014.18,2036.57,3063.00,3027.92,3293.00,500.05,493.79,47.91,0000 0000 0000 0000 000000
2014-06-03 04:00:23,-0.02,1.00,0.00,24.04,27.98,30.40,9.52,39.21,1014.19,2036.17,3062.97,3027.48,3292.99,500.04,493.84,47.95,0000 0000 0000 0000 000000
2014-06-03 04:05:24,0.02,1.00,0.00,24.07,28.00,30.42,9.48,39.04,1014.18,2036.10,3062.75,3027.07,3292.83,500.31,493.80,47.99,0000 0000 0000 0000 000000
2014-06-03 04:10:25,0.01,1.00,0.00,24.11,28.02,30.45,9.56,39.31,1014.18,2036.02,3062.14,3027.00,3292.15,500.04,493.68,48.03,0000 0000 0000 0000 000000
2014-06-03 04:15:26,0.00,1.00,0.00,24.14,28.05,30.47,9.55,39.23,1014.18,2036.00,3062.00,3026.98,3292.00,500.30,494.03,48.07,0000 0000 0000 0000 000000
2014-06-03 04:20:27,0.00,1.00,0.00,24.15,28.07,30.49,9.53,39.39,1014.18,2036.00,3061.99,3026.86,3291.99,500.07,493.63,48.11,0000 0000 0000 0000 000000
2014-06-03 04:25:28,0.01,1.00,0.00,24.18,28.09,30.51,9.50,39.16,1014.19,2036.00,3061.95,3026.50,3291.95,500.02,493.47,48.16,0000 0000 0000 0000 000000
2014-06-03 04:30:29,0.04,1.00,0.00,24.20,28.11,30.54,9.53,39.31,1014.21,2035.99,3061.32,3026.07,3291.36,500.23,493.69,48.20,0000 0000 0000 0000 000000
2014-06-03 04:35:31,0.00,1.00,0.00,24.22,28.14,30.56,9.50,39.24,1014.23,2035.97,3061.07,3026.00,3291.02,499.96,493.49,48.24,0000 0000 0000 0000 000000
2014-06-03 04:40:32,0.00,1.00,0.00,24.25,28.16,30.58,9.49,39.24,1014.22,2035.94,3061.00,3026.00,3291.00,499.61,493.05,48.28,0000 0000 0000 0000 000000
2014-06-03 04:45:33,-0.03,1.00,0.00,24.27,28.17,30.61,9.45,38.93,1014.20,2035.68,3061.00,3025.91,3290.97,499.84,493.38,48.32,0000 0000 0000 0000 000000
2014-06-03 04:50:34,0.00,1.00,0.00,24.29,28.20,30.62,9.52,38.92,1014.20,2035.29,3060.78,3025.27,3290.55,500.15,493.62,48.36,0000 0000 0000 0000 000000
2014-06-03 04:55:35,0.00,1.00,0.00,24.31,28.22,30.65,9.47,39.05,1014.19,2035.09,3060.24,3025.05,3290.09,499.88,493.25,48.40,0000 0000 0000 0000 000000
2014-06-03 05:00:36,0.00,1.00,0.00,24.34,28.24,30.68,9.50,39.27,1014.21,2035.03,3060.03,3025.00,3290.00,500.39,493.54,48.45,0000 0000 0000 0000 000000
2014-06-03 05:05:37,-0.00,1.00,0.00,24.36,28.26,30.69,9.49,39.22,1014.25,2035.01,3060.01,3025.00,3290.00,499.97,493.31,48.49,0000 0000 0000 0000 000000
2014-06-03 05:10:38,0.00,1.00,0.00,24.39,28.28,30.72,9.53,39.01,1014.24,2035.00,3059.99,3024.90,3289.89,499.93,493.16,48.53,0000 0000 0000 0000 000000
2014-06-03 05:15:39,0.03,1.00,0.00,24.41,28.31,30.75,9.44,39.04,1014.31,2034.99,3059.86,3024.36,3289.37,499.57,492.76,48.57,0000 0000 0000 0000 000000
2014-06-03 05:20:40,0.02,1.00,0.00,24.43,28.33,30.76,9.54,38.92,1014.50,2034.99,3059.39,3024.06,3289.03,500.30,493.53,48.61,0000 0000 0000 0000 000000
2014-06-03 05:25:41,0.01,1.00,0.00,24.45,28.35,30.78,9.53,39.23,1014.62,2034.98,3059.14,3024.01,3289.00,499.98,493.19,48.65,0000 0000 0000 0000 000000
2014-06-03 05:30:43,0.00,1.00,0.00,24.48,28.37,30.80,9.48,38.90,1014.64,2034.94,3059.03,3024.00,3289.00,499.89,493.22,48.70,0000 0000 0000 0000 000000
2014-06-03 05:35:44,-0.03,1.00,0.00,24.50,28.40,30.83,9.46,39.12,1014.66,2034.78,3058.99,3023.98,3288.95,500.07,493.45,48.74,0000 0000 0000 0000 000000
2014-06-03 05:40:45,-0.03,1.00,0.00,24.52,28.42,30.84,9.51,39.11,1014.66,2034.38,3058.95,3023.86,3288.55,500.01,493.18,48.78,0000 0000 0000 0000 000000
2014-06-03 05:45:46,0.00,1.00,0.00,24.54,28.44,30.87,9.53,39.11,1014.66,2034.09,3058.86,3023.48,3288.07,500.19,493.38,48.82,0000 0000 0000 0000 000000
2014-06-03 05:50:47,0.02,1.00,0.00,24.57,28.46,30.89,9.48,39.13,1014.66,2034.03,3058.20,3023.04,3288.00,499.82,492.87,48.86,0000 0000 0000 0000 000000
2014-06-03 05:55:48,-0.00,1.00,0.00,24.58,28.48,30.92,9.57,39.11,1014.66,2034.01,3058.03,3023.00,3288.00,500.07,493.17,48.90,0000 0000 0000 0000 000000
2014-06-03 06:00:49,0.00,1.00,0.00,24.60,28.50,30.93,9.52,39.30,1014.66,2034.00,3058.00,3022.99,3287.96,500.16,493.22,48.95,0000 0000 0000 0000 000000
2014-06-03 06:05:50,0.01,1.00,0.00,24.63,28.52,30.95,9.46,39.10,1014.66,2034.00,3058.00,3022.94,3287.63,499.88,492.85,48.99,0000 0000 0000 0000 000000
2014-06-03 06:10:51,0.02,1.00,0.00,24.65,28.55,30.98,9.43,39.15,1014.66,2033.99,3057.94,3022.59,3287.13,499.65,492.69,49.03,0000 0000 0000 0000 000000
2014-06-03 06:15:52,0.01,1.00,0.00,24.67,28.57,31.00,9.44,38.88,1014.67,2033.97,3057.79,3022.24,3287.02,499.91,493.12,49.07,0000 0000 0000 0000 000000
2014-06-03 06:20:53,0.02,1.00,0.00,24.69,28.59,31.02,9.52,38.94,1014.67,2033.98,3057.30,3022.02,3287.00,500.23,493.19,49.11,0000 0000 0000 0000 000000
2014-06-03 06:25:54,-0.01,1.00,0.00,24.70,28.61,31.03,9.40,39.02,1014.68,2033.91,3057.04,3022.00,3286.99,499.91,492.88,49.15,0000 0000 0000 0000 000000
2014-06-03 06:30:55,-0.01,1.00,0.00,24.72,28.62,31.06,9.47,39.05,1014.67,2033.85,3057.02,3022.00,3286.96,500.01,492.90,49.19,0000 0000 0000 0000 000000
2014-06-03 06:35:56,-0.01,1.00,0.00,24.73,28.65,31.08,9.50,38.92,1014.67,2033.67,3057.00,3022.00,3286.59,500.18,493.29,49.24,0000 0000 0000 0000 000000
2014-06-03 06:40:58,-0.01,1.00,0.00,24.75,28.67,31.09,9.46,39.03,1014.67,2033.53,3057.00,3021.97,3286.24,500.00,492.82,49.28,0000 0000 0000 0000 000000
2014-06-03 06:45:58,-0.02,1.00,0.00,24.76,28.68,31.11,9.51,39.04,1014.68,2033.18,3056.90,3021.64,3286.05,500.26,493.01,49.32,0000 0000 0000 0000 000000
2014-06-03 06:51:00,0.01,1.00,0.00,24.77,28.70,31.13,9.51,39.07,1014.68,2033.05,3056.59,3021.16,3286.00,499.87,492.60,49.36,0000 0000 0000 0000 000000
2014-06-03 06:56:01,0.01,1.00,0.00,24.79,28.72,31.15,9.50,39.04,1014.72,2033.02,3056.10,3021.02,3285.98,500.02,492.85,49.40,0000 0000 0000 0000 000000
2014-06-03 07:01:02,0.00,1.00,0.00,24.81,28.75,31.17,9.47,38.80,1014.73,2033.00,3056.00,3021.00,3285.75,499.58,492.48,49.44,0000 0000 0000 0000 000000
2014-06-03 07:06:03,0.00,1.00,0.00,24.82,28.76,31.19,9.47,39.10,1014.85,2033.00,3056.00,3020.99,3285.42,499.70,492.44,49.49,0000 0000 0000 0000 000000
2014-06-03 07:11:04,0.00,1.00,0.00,24.78,28.78,31.21,9.55,39.05,1014.87,2033.00,3056.00,3020.94,3285.04,500.13,493.14,49.53,0000 0000 0000 0000 000000
2014-06-03 07:27:13,-3333.30,0.00,0.00,24.85,28.91,29.81,8.35,35.72,1014.94,1833.03,3157.48,2993.91,3254.06,444.41,438.03,0.00,0000 0000 0000 0000 000000
2014-06-03 07:32:14,0.00,0.00,0.00,25.27,28.88,30.59,9.41,39.72,1015.15,2034.05,3500.99,3321.27,3610.40,499.75,491.93,0.05,0000 0000 0000 0000 000000
2014-06-03 07:37:15,0.00,0.00,0.00,25.38,28.86,30.78,9.47,39.75,1015.15,2033.57,3499.91,3320.35,3609.15,499.73,491.85,0.09,0000 0000 0000 0000 000000
2014-06-03 07:42:16,0.00,0.00,0.00,25.13,28.85,30.92,9.45,39.73,1015.15,2033.20,3499.10,3320.01,3608.81,500.14,492.64,0.13,0000 0000 0000 0000 000000
2014-06-03 07:47:17,0.00,0.00,0.00,24.94,28.85,31.04,9.44,39.66,1015.16,2033.07,3498.88,3319.99,3608.13,500.05,492.74,0.17,0000 0000 0000 0000 000000
2014-06-03 07:52:18,-0.01,0.00,0.00,24.86,28.85,31.12,9.45,39.60,1015.18,2033.03,3498.30,3319.96,3608.00,499.78,492.72,0.21,0000 0000 0000 0000 000000
2014-06-03 07:57:20,-0.00,0.00,0.00,24.82,28.85,31.17,9.49,39.48,1015.22,2033.04,3498.03,3319.89,3608.00,499.75,492.61,0.25,0000 0000 0000 0000 000000
2014-06-03 08:02:21,0.00,0.00,0.00,24.80,28.85,31.21,9.44,39.34,1015.34,2033.02,3498.00,3319.71,3607.93,499.62,492.76,0.30,0000 0000 0000 0000 000000
2014-06-03 08:07:21,0.01,0.00,0.00,24.79,28.85,31.23,9.50,39.52,1015.55,2033.03,3498.00,3319.41,3607.67,500.17,493.33,0.34,0000 0000 0000 0000 000000
2014-06-03 08:12:22,0.02,0.00,0.00,24.79,28.85,31.24,9.42,39.39,1015.63,2033.03,3497.97,3319.13,3607.13,499.72,492.91,0.38,0000 0000 0000 0000 000000
2014-06-03 08:17:24,0.00,0.00,0.00,24.80,28.87,31.26,9.39,39.23,1015.64,2033.01,3497.83,3319.06,3607.05,499.94,493.13,0.42,0000 0000 0000 0000 000000
2014-06-03 08:22:24,0.01,0.00,0.00,24.81,28.87,31.28,9.47,39.42,1015.64,2033.01,3497.30,3319.02,3607.00,500.29,493.46,0.46,0000 0000 0000 0000 000000
2014-06-03 08:27:25,0.00,0.00,0.00,24.82,28.88,31.30,9.59,39.41,1015.65,2033.00,3497.05,3319.00,3606.99,499.73,493.03,0.51,0000 0000 0000 0000 000000
2014-06-03 08:32:27,0.00,0.00,0.00,24.83,28.90,31.31,9.40,39.25,1015.65,2033.00,3497.00,3318.99,3606.93,499.35,492.53,0.55,0000 0000 0000 0000 000000
2014-06-03 08:37:28,0.00,0.00,0.00,24.85,28.90,31.32,9.56,39.42,1015.68,2033.00,3497.00,3318.99,3606.93,500.30,493.43,0.59,0000 0000 0000 0000 000000
2014-06-03 08:42:29,0.00,0.00,0.00,24.87,28.92,31.33,9.47,39.17,1015.71,2033.00,3497.00,3318.98,3606.80,499.83,493.04,0.63,0000 0000 0000 0000 000000
2014-06-03 08:47:30,0.01,0.00,0.00,24.87,28.92,31.34,9.55,39.35,1015.72,2033.00,3496.99,3318.95,3606.23,499.93,493.21,0.67,0000 0000 0000 0000 000000
2014-06-03 08:52:31,0.01,0.00,0.00,24.88,28.94,31.36,9.46,39.13,1015.75,2033.00,3496.92,3318.69,3606.02,499.81,492.68,0.71,0000 0000 0000 0000 000000
2014-06-03 08:57:33,0.02,0.00,0.00,24.89,28.95,31.37,9.50,39.11,1015.80,2033.00,3496.69,3318.30,3606.00,499.80,492.96,0.76,0000 0000 0000 0000 000000
2014-06-03 09:02:34,0.01,0.00,0.00,24.91,28.97,31.39,9.52,39.34,1016.08,2033.00,3496.36,3318.12,3605.99,500.15,493.44,0.80,0000 0000 0000 0000 000000
2014-06-03 09:07:35,0.00,0.00,0.00,24.91,28.97,31.40,9.56,39.28,1016.02,2033.00,3496.13,3318.02,3605.97,499.95,493.00,0.84,0000 0000 0000 0000 000000
2014-06-03 09:12:37,0.00,0.00,0.00,24.92,29.00,31.41,9.49,39.12,1015.94,2032.99,3496.01,3318.00,3605.77,500.00,493.27,0.88,0000 0000 0000 0000 000000
2014-06-03 09:17:38,0.00,0.00,0.00,24.92,29.00,31.44,9.52,39.35,1015.98,2032.99,3496.00,3318.00,3605.58,499.93,493.13,0.92,0000 0000 0000 0000 000000
2014-06-03 09:22:39,0.01,0.00,0.00,24.94,29.02,31.45,9.47,39.22,1016.10,2032.98,3496.00,3318.00,3605.22,499.96,493.17,0.97,0000 0000 0000 0000 000000
2014-06-03 09:27:41,0.00,0.00,0.00,24.95,29.02,31.47,9.54,39.27,1016.11,2032.97,3495.98,3317.99,3605.05,500.09,493.20,1.01,0000 0000 0000 0000 000000
2014-06-03 09:32:42,0.01,0.00,0.00,24.95,29.05,31.48,9.51,39.39,1016.08,2032.92,3495.75,3317.87,3605.00,500.07,493.18,1.05,0000 0000 0000 0000 000000
2014-06-03 09:37:43,-0.02,0.00,0.00,24.96,29.05,31.49,9.48,39.11,1016.11,2032.72,3495.53,3317.58,3604.98,499.82,493.12,1.09,0000 0000 0000 0000 000000
2014-06-03 09:42:44,-0.01,0.00,0.00,24.96,29.07,31.49,9.41,39.08,1016.13,2032.44,3495.23,3317.24,3604.94,499.62,492.88,1.13,0000 0000 0000 0000 000000
2014-06-03 09:47:45,-0.02,0.00,0.00,24.97,29.07,31.51,9.51,39.17,1016.12,2032.15,3495.05,3317.07,3604.77,499.83,493.13,1.17,0000 0000 0000 0000 000000
2014-06-03 09:52:46,-0.00,0.00,0.00,24.97,29.08,31.51,9.52,39.08,1016.13,2032.09,3495.01,3317.01,3604.27,499.97,493.18,1.22,0000 0000 0000 0000 000000
2014-06-03 09:57:47,-0.00,0.00,0.00,24.98,29.10,31.53,9.56,39.23,1016.13,2032.04,3495.01,3317.01,3604.10,500.39,493.51,1.26,0000 0000 0000 0000 000000
2014-06-03 10:02:48,0.00,0.00,0.00,25.00,29.10,31.54,9.42,38.98,1016.13,2032.04,3495.00,3317.00,3604.04,500.08,493.18,1.30,0000 0000 0000 0000 000000
2014-06-03 10:07:49,-0.00,0.00,0.00,25.00,29.12,31.54,9.44,39.13,1016.13,2032.01,3495.00,3317.00,3604.01,500.16,493.02,1.34,0000 0000 0000 0000 000000
2014-06-03 10:12:50,0.00,0.00,0.00,25.00,29.12,31.56,9.48,39.10,1016.14,2032.02,3494.97,3317.00,3604.00,499.71,492.97,1.38,0000 0000 0000 0000 000000
2014-06-03 10:17:51,-0.00,0.00,0.00,25.01,29.13,31.57,9.42,39.08,1016.15,2032.01,3494.86,3316.98,3604.00,499.54,492.83,1.43,0000 0000 0000 0000 000000
2014-06-03 10:22:52,0.00,0.00,0.00,25.01,29.15,31.57,9.40,39.05,1016.15,2032.00,3494.64,3316.98,3604.00,499.70,493.16,1.47,0000 0000 0000 0000 000000
2014-06-03 10:27:53,0.01,0.00,0.00,25.02,29.15,31.57,9.50,39.01,1016.16,2032.01,3494.38,3316.95,3603.97,500.41,493.58,1.51,0000 0000 0000 0000 000000
2014-06-03 10:32:55,0.00,0.00,0.00,25.02,29.16,31.59,9.45,38.89,1016.21,2032.00,3494.47,3316.92,3603.93,499.65,492.86,1.55,0000 0000 0000 0000 000000
2014-06-03 10:37:56,0.02,0.00,0.00,25.02,29.17,31.59,9.52,39.10,1016.41,2032.00,3494.16,3316.71,3603.67,500.13,493.32,1.59,0000 0000 0000 0000 000000
2014-06-03 10:42:57,0.02,0.00,0.00,25.02,29.17,31.60,9.43,39.03,1016.48,2032.00,3494.07,3316.53,3603.44,499.39,492.63,1.63,0000 0000 0000 0000 000000
2014-06-03 10:47:59,0.01,0.00,0.00,25.02,29.19,31.62,9.52,39.18,1016.58,2032.00,3494.00,3316.05,3603.04,500.11,493.30,1.68,0000 0000 0000 0000 000000
2014-06-03 10:53:00,0.00,0.00,0.00,25.02,29.20,31.62,9.51,39.01,1016.59,2032.00,3494.00,3316.01,3603.01,499.83,493.00,1.72,0000 0000 0000 0000 000000
2014-06-03 10:58:00,0.00,0.00,0.00,25.00,29.20,31.64,9.55,39.13,1016.61,2032.00,3493.99,3316.01,3603.00,500.25,493.60,1.76,0000 0000 0000 0000 000000
2014-06-03 11:03:01,0.00,0.00,0.00,25.01,29.20,31.65,9.52,38.93,1016.62,2032.00,3493.97,3316.00,3603.00,500.22,493.69,1.80,0000 0000 0000 0000 000000
2014-06-03 11:08:02,0.00,0.00,0.00,25.02,29.22,31.65,9.44,39.16,1016.62,2031.99,3493.96,3316.00,3603.00,499.80,493.11,1.84,0000 0000 0000 0000 000000
2014-06-03 11:13:04,0.00,0.00,0.00,25.02,29.22,31.64,9.47,39.04,1016.62,2031.99,3493.97,3316.00,3602.99,499.84,493.04,1.89,0000 0000 0000 0000 000000
2014-06-03 11:18:05,-0.00,0.00,0.00,25.02,29.22,31.64,9.53,39.20,1016.62,2031.98,3493.93,3316.00,3602.98,500.41,493.70,1.93,0000 0000 0000 0000 000000
2014-06-03 11:23:06,0.00,0.00,0.00,25.04,29.22,31.64,9.44,38.98,1016.62,2031.98,3493.91,3316.00,3602.95,499.65,493.12,1.97,0000 0000 0000 0000 000000
2014-06-03 11:28:07,0.01,0.00,0.00,25.05,29.23,31.64,9.49,39.09,1016.62,2031.98,3493.45,3315.98,3602.87,500.16,493.39,2.01,0000 0000 0000 0000 000000
2014-06-03 11:33:08,0.00,0.01,0.00,25.05,29.24,31.66,9.49,39.26,1016.62,2031.94,3493.18,3315.96,3602.57,499.80,493.03,2.05,0000 0000 0000 0000 000000
2014-06-03 11:38:10,0.00,0.01,0.00,25.05,29.25,31.66,9.51,39.02,1016.63,2031.95,3493.03,3315.93,3602.32,500.12,493.39,2.09,0000 0000 0000 0000 000000
2014-06-03 11:43:11,-0.00,0.01,0.00,25.04,29.25,31.66,9.55,39.25,1016.63,2031.92,3493.02,3315.90,3602.26,500.18,493.45,2.14,0000 0000 0000 0000 000000
2014-06-03 11:48:12,-0.00,0.01,0.00,25.02,29.25,31.68,9.53,39.11,1016.69,2031.90,3493.01,3315.84,3602.13,500.15,493.65,2.18,0000 0000 0000 0000 000000
2014-06-03 11:53:13,0.00,0.01,0.00,25.02,29.25,31.68,9.50,39.15,1016.77,2031.83,3493.00,3315.46,3602.03,500.32,493.65,2.22,0000 0000 0000 0000 000000
2014-06-03 11:58:14,-0.00,0.01,0.00,25.00,29.25,31.69,9.47,39.20,1016.79,2031.78,3493.00,3315.44,3602.01,499.84,493.35,2.26,0000 0000 0000 0000 000000
2014-06-03 12:03:15,-0.00,0.01,0.00,24.98,29.25,31.69,9.43,39.14,1016.69,2031.65,3493.00,3315.23,3602.00,500.14,493.49,2.30,0000 0000 0000 0000 000000
2014-06-03 12:08:16,-0.01,0.01,0.00,24.97,29.25,31.69,9.45,39.06,1016.66,2031.56,3493.00,3315.17,3602.00,499.46,493.01,2.35,0000 0000 0000 0000 000000
2014-06-03 12:13:17,0.00,0.01,0.00,24.95,29.25,31.68,9.52,39.13,1016.65,2031.57,3493.00,3315.17,3602.00,499.99,493.31,2.39,0000 0000 0000 0000 000000
2014-06-03 12:18:19,-0.00,0.00,0.00,24.93,29.25,31.68,9.51,39.13,1016.65,2031.44,3492.99,3315.06,3602.00,499.42,492.93,2.43,0000 0000 0000 0000 000000
2014-06-03 12:23:20,-0.01,0.00,0.00,24.92,29.25,31.69,9.44,39.15,1016.67,2031.31,3492.98,3315.03,3601.98,499.43,492.90,2.47,0000 0000 0000 0000 000000
2014-06-03 12:28:21,0.01,0.00,0.00,24.91,29.25,31.69,9.52,39.11,1016.64,2031.50,3492.98,3315.12,3601.99,499.96,493.63,2.51,0000 0000 0000 0000 000000
2014-06-03 12:33:22,0.01,0.01,0.00,24.90,29.25,31.67,9.50,38.95,1016.66,2031.56,3492.99,3315.11,3601.99,499.95,493.63,2.55,0000 0000 0000 0000 000000
2014-06-03 12:38:23,0.01,0.01,0.00,24.88,29.24,31.68,9.47,38.94,1016.69,2031.63,3492.98,3315.12,3601.99,499.72,493.29,2.60,0000 0000 0000 0000 000000
2014-06-03 12:43:23,0.01,0.01,0.00,24.87,29.22,31.67,9.48,39.21,1016.68,2031.80,3492.98,3315.12,3601.99,500.20,493.76,2.64,0000 0000 0000 0000 000000
2014-06-03 12:48:25,-0.00,0.01,0.00,24.86,29.22,31.66,9.54,39.26,1016.68,2031.81,3492.99,3315.24,3601.99,500.23,493.90,2.68,0000 0000 0000 0000 000000
2014-06-03 12:53:26,-0.00,0.01,0.00,24.85,29.22,31.66,9.51,39.18,1016.68,2031.86,3492.99,3315.29,3601.99,499.82,493.43,2.72,0000 0000 0000 0000 000000
2014-06-03 12:58:27,-0.00,0.01,0.00,24.83,29.22,31.66,9.44,39.03,1016.71,2031.85,3492.99,3315.16,3601.99,500.01,493.68,2.76,0000 0000 0000 0000 000000
2014-06-03 13:03:28,-0.00,0.01,0.00,24.82,29.22,31.66,9.55,39.11,1016.68,2031.82,3492.99,3315.16,3601.99,500.13,493.80,2.81,0000 0000 0000 0000 000000
2014-06-03 13:08:30,-0.01,0.01,0.00,24.80,29.20,31.65,9.54,39.08,1016.78,2031.73,3492.97,3315.11,3601.99,499.87,493.62,2.85,0000 0000 0000 0000 000000
2014-06-03 13:13:31,0.01,0.01,0.00,24.79,29.20,31.65,9.46,38.99,1016.72,2031.81,3492.97,3315.15,3601.99,499.70,493.52,2.89,0000 0000 0000 0000 000000